Showing default

RELAY 1 (A-15), 503

Orbit data source: Space-Track

RELAY 1 (A-15), 503 is a payload satellite owned by GSFC (US) that was launched on Thu, 13 Dec 1962 UTC via a THOR DELTA B launch vehicle from the Air Force Eastern Test Range (AFETR). Payload-class satellites include a variety of spacecraft equipped with specific instruments for various scientific and technological missions. These include communications satellites like Starlink; space stations such as the ISS; scientific satellites like the Hubble; Earth observation satellites from companies like Planet Labs, Umbra, and HawkEye 360; GPS; miniature CubeSats for education and research; and military/defense satellites.

Loading next visibility...
Identifier
503, 1962-068A
Orbit
Active
Country
Flag of USUS
Related business
Manufacturer
RCA/East Windsor
Mission
Civil Communications
Bus & Motor
RELAY, Unknown motor
Mass
78 kg wet, 78 kg dry
Launch date (UTC)
1962-12-13 (63 years ago)
Launch vehicle
THOR DELTA B
Launch site
Air Force Eastern Test Range (AFETR)
Object type
Payload
Rocket body
Debris
Shape & HBR
Oct Cyl, 0.4 m
Radar Cross Section
0.652 m², Medium (>0.1 m² and < 1m²)

Expand to show TLE details & history
Last TLE update: 2 days ago

TLE from 2 days ago
0 RELAY 1 (A-15)
1 00503U 62068A   25258.22860852 -.00000014  00000-0  00000-0 0  9991
2 00503  47.5212  56.8993 2837538 245.3060 313.5041  7.78160117784078
Epoch: 2025-09-15T05:29Z
TLE epoch observation values (Epoch: 2025-09-15T05:29:11.776Z)
Latitude
7.96258°
Longitude
152.83713°
Altitude
2,883.418 km
Speed
7.003 km/s
True Right ascension
15h 18m 17s
True Declination
7° 55' 35"
Sunlit
Object was in daylight at epoch
Visualization orbit readout
Latitude
Unknown
Longitude
Unknown
Altitude
Unknown
Speed
Unknown
Apparent Right ascension
Unknown
Apparent Declination
Unknown
Sunlit
N/A
Visualization observer readout
Local Sidereal Time
14:04:56
Azimuth
Unknown
Elevation
Unknown
Doppler factor
Unknown
Orbital elements
Apogee altitude
7,432.246 km
Perigee altitude
1,327.105 km
Semi-major axis
10,757.813 km
Eccentricity
0.28375
Inclination
47.5212°
RAAN
56.8993°
Arg. of periapsis
245.306°
True anomaly
283.84874°
Mean anomaly
313.5041°
Eccentric anomaly
299.3303°
Mean motion
1.94517 °/min
Orbital period
185.07 mins
BSTAR
0
Loading maneuver chart data...
Computing Atmospheric mass density...
Loading historical data...
Loading historical data...
Loading historical data...
Loading historical data...
Loading historical data...
Loading historical data...
Loading historical data...
Other satellites on launch #68 in the year 1962 (1962-12-13 UTC)

Documentation

Showing up to 5 results
|